Theta_e
325 327 330 330 327 323 323 324 324 323 322 323 324 324 325 326 325 323 322 322 325 327 328 332 333 333 333 332 332 333 333 333 334 334 334 334 333 331 328 325 324 324 324 324 324 324 324 323 323 323 324 324 324 323 321 320 319 318 320 321 321 320 318 317 314 315 316 311 311 314 314 311 310 308 307 308 309 309 311 314 316 320 323 323 323
331 331 332 332 331 330 330 330 329 328 325 323 324 325 326 326 327 326 325 323 324 326 328 332 334 334 334 333 333 333 332 333 332 333 334 333 332 331 328 326 325 325 325 325 324 324 324 323 323 323 324 325 324 324 323 321 318 317 319 318 319 318 316 317 316 315 313 312 315 319 317 311 308 308 308 308 308 308 309 312 314 316 319 320 321
334 334 334 333 333 333 333 333 332 332 330 327 325 325 326 327 327 327 328 326 325 327 329 332 335 335 334 334 334 333 332 331 331 331 333 332 330 330 330 328 326 326 325 325 325 325 325 324 323 323 324 324 324 324 322 321 319 319 318 317 318 318 315 316 318 318 316 317 319 319 318 313 308 308 308 307 307 307 307 310 312 314 316 317 318
335 335 335 335 334 334 334 334 334 333 333 331 329 326 325 326 326 327 327 327 327 327 328 331 334 334 334 334 334 333 331 330 330 331 331 330 328 327 329 329 327 327 326 326 326 325 325 324 322 322 322 322 323 322 321 320 319 317 316 314 315 317 315 315 319 319 318 320 321 319 318 313 308 307 307 307 307 306 306 308 310 312 314 314 316
335 335 335 335 335 335 335 334 335 335 334 334 332 330 327 325 325 325 326 326 327 327 327 328 330 332 332 334 334 333 331 330 330 330 330 330 327 325 328 330 328 328 327 327 327 326 326 323 320 321 322 321 321 321 321 321 319 315 315 313 312 316 317 316 317 318 319 320 320 319 317 310 307 307 307 307 307 306 305 306 307 309 311 315 316
335 335 335 335 335 335 334 334 334 334 335 334 334 332 330 327 325 326 326 326 327 327 327 327 328 329 331 333 334 334 332 330 329 329 330 329 327 327 329 330 329 329 327 327 327 327 327 323 319 319 319 320 320 321 322 320 316 313 314 313 311 316 317 316 317 317 319 319 318 318 316 309 307 307 307 307 307 306 305 305 306 306 307 311 313
334 334 334 333 333 333 332 332 333 334 335 335 334 332 331 330 328 328 328 328 328 328 328 328 327 329 331 332 333 333 332 330 329 329 330 329 328 329 330 329 329 329 327 327 327 327 327 322 317 316 316 318 319 320 321 319 316 314 313 312 312 316 317 315 317 317 317 318 317 316 314 309 307 308 307 307 307 306 306 305 305 305 305 307 308
334 333 332 331 331 331 331 331 331 332 333 334 334 333 333 333 331 329 329 329 329 329 329 329 328 329 332 332 332 333 333 331 330 329 329 329 329 330 330 329 329 329 328 327 327 327 327 321 314 313 313 316 319 321 321 320 319 318 314 311 311 312 313 314 316 317 316 315 314 313 312 310 308 308 308 307 308 307 306 305 305 305 305 305 306
332 331 330 331 331 331 331 330 330 330 331 332 334 334 333 334 333 332 330 330 330 330 330 330 329 329 332 332 332 333 332 332 330 329 329 329 329 330 330 329 330 330 328 327 327 327 327 321 313 313 312 314 320 323 322 320 319 318 317 316 313 309 310 313 316 316 315 314 313 311 311 310 308 308 308 308 307 306 306 306 306 307 307 309 310
331 331 331 331 331 331 331 330 330 330 330 331 332 332 332 333 333 333 332 331 331 330 330 331 330 330 332 332 332 333 332 332 330 329 329 329 330 330 329 329 330 330 328 327 327 327 327 321 314 314 312 313 317 320 321 320 318 318 318 318 316 310 307 311 314 314 315 316 314 311 311 310 309 308 309 309 309 310 311 311 312 314 314 316 317
332 332 332 332 332 331 330 329 329 329 329 330 330 331 331 332 332 333 333 332 331 331 330 330 330 331 331 331 332 332 331 332 331 330 329 329 330 330 330 329 330 330 329 328 327 327 326 321 316 315 313 312 313 316 319 317 316 318 315 313 312 308 308 312 313 313 316 317 313 310 310 310 311 313 312 312 314 316 318 318 318 319 319 319 320
333 333 333 332 331 330 329 329 329 328 328 329 329 329 330 331 332 332 332 333 332 332 331 331 331 331 331 331 331 331 331 331 331 331 330 329 330 330 330 330 330 330 329 328 327 327 327 321 318 318 314 311 310 311 315 313 314 316 312 312 313 311 313 316 314 315 318 315 310 310 311 312 315 318 317 317 318 320 320 320 320 320 320 321 321
334 333 332 330 330 329 329 329 329 329 328 329 329 329 329 330 332 332 332 333 333 332 332 332 332 332 331 331 331 331 331 331 331 331 330 329 330 330 330 330 329 330 330 329 328 327 327 322 320 321 317 313 310 309 310 309 311 314 312 314 317 315 316 316 315 317 317 313 311 312 313 316 319 320 319 320 322 322 322 321 321 321 322 322 322
334 331 329 328 329 329 328 328 328 329 329 329 329 329 329 330 331 332 332 332 332 332 332 332 333 332 331 331 330 330 331 331 331 331 330 330 330 330 330 329 329 330 330 329 328 327 328 324 322 322 320 316 314 311 311 309 310 313 313 315 318 317 316 316 317 317 315 313 313 315 316 317 319 319 320 321 323 323 322 322 322 322 322 322 322
332 329 328 328 328 328 328 328 328 328 329 329 329 329 329 329 331 332 331 332 332 332 332 331 332 332 331 330 330 330 330 330 330 330 330 330 331 330 330 329 329 331 330 329 329 328 328 326 324 324 322 319 317 316 314 312 311 313 314 316 319 318 316 318 319 316 315 315 316 317 318 317 318 319 320 322 322 322 322 322 322 323 322 322 322
330 329 329 328 328 328 327 327 327 328 329 329 329 329 328 328 329 330 331 332 331 331 331 331 332 332 332 331 330 330 330 330 330 329 329 330 331 331 330 330 329 330 330 330 330 329 328 327 326 325 324 322 320 319 317 315 314 315 316 317 319 318 317 319 319 317 316 318 319 320 319 317 319 321 322 322 321 321 322 322 323 323 322 322 322
330 329 328 326 326 326 326 326 326 326 326 326 327 328 328 328 328 329 329 330 330 330 331 331 331 331 332 331 330 330 330 330 330 329 329 329 330 331 330 330 330 330 330 330 330 330 328 327 327 326 326 325 323 321 320 317 315 315 317 318 317 317 319 320 321 321 319 320 320 321 320 319 321 323 322 321 321 321 322 322 323 323 322 322 321
331 330 329 326 325 326 326 325 325 325 325 325 325 325 326 327 328 329 329 329 330 330 330 330 330 331 331 331 330 329 330 330 330 330 330 329 329 330 330 330 330 330 330 330 330 330 329 328 328 327 326 326 325 324 323 321 317 314 316 317 315 317 319 322 324 324 323 322 322 321 321 321 322 323 322 321 321 321 322 322 322 322 322 321 321
332 332 332 329 328 328 328 328 327 327 327 326 326 325 325 326 327 328 329 329 330 330 329 329 331 331 331 331 330 330 330 330 330 330 330 330 330 330 331 330 330 330 330 330 330 329 329 328 328 327 327 326 325 325 325 323 320 316 314 316 316 317 320 323 325 325 324 324 323 322 321 322 321 321 321 320 320 320 321 322 322 322 322 321 321
333 333 333 331 329 329 329 330 330 329 328 327 327 326 326 326 326 327 328 329 330 329 329 328 329 330 331 331 330 330 329 330 330 330 329 329 330 330 331 331 330 330 330 330 330 329 329 328 328 327 327 326 326 326 326 325 324 320 316 315 317 318 320 323 325 325 325 325 323 322 322 322 318 316 316 316 317 320 320 321 322 321 321 320 320
333 333 333 332 331 330 330 330 330 330 330 329 329 329 328 327 327 327 328 329 330 330 329 328 328 329 330 331 331 330 330 330 330 330 329 329 330 330 330 331 330 330 330 330 330 329 329 328 328 327 327 327 326 326 326 325 325 324 320 317 317 318 320 322 324 324 324 325 324 322 322 322 317 317 317 313 311 315 317 320 321 321 320 319 319
333 333 333 333 333 333 332 332 331 330 330 330 330 330 329 329 328 328 329 329 330 330 330 329 328 328 330 331 331 330 330 329 329 330 330 330 330 330 330 330 330 330 330 330 329 329 329 329 329 328 327 327 326 326 326 325 325 325 323 320 318 318 319 321 324 324 324 324 324 323 323 322 320 320 321 315 307 307 310 312 315 316 316 315 313
333 333 333 333 333 333 332 331 329 329 329 329 329 330 330 330 330 329 329 329 329 330 331 331 329 329 330 331 331 331 330 330 329 330 330 330 330 330 330 330 330 329 329 329 329 329 329 329 329 328 327 327 326 326 326 326 325 325 324 323 320 320 319 321 323 324 323 324 324 325 323 323 322 321 321 317 308 305 305 304 304 305 306 307 305
333 332 332 332 332 332 330 329 328 328 327 326 325 326 327 328 329 330 330 330 329 330 331 331 330 330 330 330 330 330 330 330 330 330 330 330 330 329 329 329 330 329 329 329 329 329 329 329 329 328 327 327 327 326 326 326 326 325 325 324 323 321 320 320 323 323 323 323 324 325 324 323 323 322 321 318 312 308 306 303 301 300 301 302 301
331 331 331 331 330 329 328 328 327 326 324 323 323 323 323 323 325 327 329 330 330 330 330 330 330 330 330 330 330 330 330 330 330 330 331 330 330 330 329 329 329 329 329 329 328 329 329 329 329 328 327 327 327 326 326 325 326 325 325 325 324 323 321 320 322 323 323 323 323 324 324 323 323 323 322 320 314 310 308 305 301 300 300 301 301
330 329 328 328 328 327 327 327 326 325 325 324 324 324 323 322 323 325 327 329 330 330 330 330 330 330 330 329 329 330 330 330 330 330 330 330 330 330 329 329 328 328 328 328 328 329 329 329 329 328 327 327 327 326 326 325 325 325 325 325 324 324 322 320 321 323 323 323 324 324 325 324 324 324 323 320 314 310 308 306 302 300 300 300 300
329 328 327 327 327 327 326 326 326 326 326 325 324 324 323 323 324 324 326 328 330 331 330 330 330 330 329 329 329 329 329 330 330 330 330 331 330 330 330 329 328 328 328 328 328 328 329 328 328 328 327 327 327 326 326 326 325 325 325 325 324 324 323 321 321 322 324 323 324 324 325 324 324 323 323 321 315 310 308 306 303 300 300 300 300
328 328 327 327 327 326 326 326 326 326 325 324 324 325 325 325 325 325 326 328 329 330 330 330 330 329 329 330 330 330 330 330 330 330 331 331 331 330 330 330 329 328 328 328 328 328 328 328 328 328 327 327 326 326 327 327 326 326 326 325 325 324 324 323 321 321 323 324 324 324 324 324 324 323 323 322 317 312 307 306 304 301 299 300 300
327 326 326 326 326 327 326 326 326 325 324 324 325 326 326 326 326 326 327 328 329 330 330 329 329 329 330 330 328 328 329 330 330 330 330 331 331 330 330 330 329 328 328 328 328 328 328 328 328 328 328 327 327 327 327 327 326 326 326 325 325 325 324 324 323 321 322 323 323 324 324 324 324 323 324 323 320 317 311 306 304 302 299 300 300
325 324 325 325 326 326 326 326 325 324 324 325 325 326 327 326 326 327 328 329 329 330 329 329 329 330 330 330 328 326 326 329 329 329 329 330 331 330 330 330 329 328 328 328 327 328 328 328 327 327 327 328 327 327 327 327 327 327 326 326 326 325 325 324 323 322 322 322 323 324 324 323 323 323 323 323 322 321 314 306 303 302 299 300 300
324 325 325 326 326 326 326 325 324 324 324 324 325 326 327 327 328 327 328 329 329 329 329 328 329 330 330 330 330 327 325 326 327 328 329 329 330 331 330 330 329 329 328 328 327 327 327 327 327 326 327 328 327 327 327 327 327 327 326 326 326 325 325 324 324 323 322 322 323 324 324 323 323 323 322 323 323 320 313 305 302 301 299 300 300
325 326 326 326 326 326 326 325 324 324 324 323 324 325 326 326 327 328 328 329 329 329 329 329 329 330 330 330 331 329 325 324 325 328 329 329 329 331 331 331 330 328 328 328 328 327 327 327 326 326 327 327 327 327 327 327 326 326 325 326 325 325 325 324 324 323 322 323 324 324 323 323 323 322 322 322 322 318 310 303 301 300 300 300 300
325 324 325 325 326 326 326 325 324 324 324 324 324 325 326 326 326 327 328 329 329 328 329 329 329 330 330 330 330 330 328 327 327 328 329 329 329 330 331 331 330 329 329 329 328 328 327 327 326 327 327 327 327 327 327 326 324 324 324 324 325 325 325 325 324 323 322 323 324 323 323 322 322 322 321 322 321 315 306 301 299 300 300 299 300
323 322 323 325 325 326 326 325 325 325 325 325 324 325 326 327 326 326 327 328 329 329 329 329 328 329 330 330 329 329 330 329 329 329 329 329 329 329 330 330 330 330 329 329 329 329 328 327 327 327 326 326 327 327 326 324 323 323 322 322 324 325 325 325 323 322 322 322 323 323 322 322 322 321 321 322 319 310 302 299 299 299 299 300 300
322 322 323 323 324 325 326 326 325 326 326 325 325 325 326 327 327 327 327 328 329 329 329 329 329 329 329 330 329 329 330 330 329 329 328 328 329 329 329 329 330 330 330 329 329 329 328 327 326 326 326 327 327 326 325 324 323 323 322 321 322 323 324 324 323 322 322 322 323 323 322 322 321 320 321 321 314 304 299 299 299 299 300 300 300
322 322 323 323 324 326 326 326 326 326 327 326 326 326 325 327 328 328 327 327 328 328 329 328 329 329 329 329 329 329 330 330 330 329 328 329 329 329 328 329 329 330 329 329 329 329 329 327 326 327 327 327 327 325 325 323 323 324 322 321 320 321 323 323 322 321 322 323 323 323 322 321 321 321 320 316 306 299 299 300 299 299 300 299 299
321 322 323 323 324 326 325 326 326 326 326 326 325 325 325 327 328 328 327 327 327 328 328 328 328 329 329 329 329 329 330 330 329 329 329 328 328 328 327 327 329 329 329 329 329 329 329 328 327 326 327 327 326 325 325 324 323 324 323 321 321 322 322 322 322 322 323 322 320 320 319 319 320 319 315 307 300 299 300 299 299 300 299 300 300
320 322 322 322 323 325 325 325 325 326 326 325 325 326 326 327 328 328 328 327 327 327 327 328 329 329 329 329 329 329 329 329 328 328 328 328 326 326 326 326 327 328 328 329 329 329 329 328 327 326 327 327 326 325 325 324 323 323 322 321 321 321 321 322 322 321 320 317 315 316 316 316 316 313 306 300 299 300 299 299 300 300 300 301 302
319 320 320 321 322 324 324 325 325 325 325 325 325 326 327 328 328 328 327 327 327 327 327 328 329 329 329 329 329 329 329 328 328 328 328 327 326 326 326 327 327 327 328 329 329 329 328 328 327 327 327 326 325 325 324 324 323 321 319 319 319 318 317 318 318 316 316 314 312 312 312 310 308 304 300 299 300 300 300 301 301 302 303 304 305
319 320 320 320 321 322 323 324 324 325 325 325 326 327 327 327 327 327 327 326 326 326 327 328 328 328 328 329 329 329 328 328 328 328 328 327 327 327 327 328 328 328 328 328 329 329 327 327 327 327 327 326 325 325 324 324 324 321 318 317 316 314 313 311 310 310 310 310 309 308 307 305 303 302 301 302 302 302 303 303 303 305 306 307 308
320 320 320 320 320 321 322 323 324 324 325 325 326 327 326 326 326 326 326 326 326 327 327 328 328 328 328 328 328 328 328 328 328 328 328 328 327 327 328 328 328 328 328 328 329 328 327 327 327 327 327 326 325 324 324 324 323 320 318 316 315 314 311 307 305 305 305 306 305 305 305 304 304 304 305 305 305 305 306 306 307 308 309 309 310
320 320 320 321 321 321 322 324 324 324 324 325 326 327 326 325 325 325 325 325 326 326 326 327 327 328 328 328 327 327 327 327 328 328 327 327 327 328 328 329 328 328 328 328 329 328 328 327 327 326 326 326 325 324 324 323 322 320 318 317 315 313 312 309 305 303 304 305 305 305 306 306 306 307 307 307 307 308 309 309 309 310 310 310 310
321 321 320 321 322 322 323 323 324 324 325 325 325 325 325 324 324 324 325 325 326 326 325 325 326 327 327 327 327 327 327 327 327 328 327 327 327 327 328 329 328 328 328 328 328 328 327 327 327 326 326 326 325 325 323 322 321 320 319 318 315 313 312 310 305 303 305 306 306 307 307 308 308 308 307 308 308 309 310 310 310 310 310 310 310
321 320 320 321 322 322 323 324 324 325 324 324 323 324 324 323 323 324 323 324 325 325 325 325 326 326 327 327 327 327 327 327 327 328 327 327 327 326 327 328 328 328 328 328 328 328 328 327 327 327 326 326 325 324 322 320 319 320 319 319 317 314 311 309 305 305 307 308 308 308 308 309 309 308 307 308 308 309 309 310 310 310 310 310 309
320 320 320 321 322 322 323 324 324 323 323 322 322 322 322 322 323 323 323 323 323 323 324 324 325 326 326 326 326 326 326 326 327 327 327 328 328 327 327 327 327 327 327 327 327 327 327 327 327 327 326 325 325 324 322 319 319 320 319 319 318 315 311 308 306 306 309 309 309 310 310 309 309 308 307 308 308 309 309 309 309 309 309 309 309
320 320 320 321 322 322 322 322 321 321 320 319 318 318 319 319 320 320 321 322 322 323 323 324 324 325 325 325 326 326 326 326 327 327 327 327 328 327 327 327 327 327 327 326 326 326 326 326 326 327 326 324 324 324 323 321 319 320 319 318 318 316 312 309 306 308 310 310 310 312 311 310 309 309 308 308 308 309 309 309 309 309 308 308 308
320 319 319 320 320 320 319 318 318 317 317 316 316 316 316 316 317 317 318 318 319 320 322 323 324 324 324 324 325 325 325 326 327 327 327 326 327 327 327 326 326 326 326 325 325 326 325 325 326 326 326 324 323 324 323 322 320 320 319 319 318 316 313 309 307 309 312 312 312 312 312 311 310 310 309 308 308 308 309 308 308 308 308 308 308
320 319 319 320 319 318 316 316 316 316 316 315 315 315 315 315 315 316 316 316 316 317 319 321 322 322 322 323 323 324 324 324 325 325 325 325 325 325 326 326 325 325 325 324 325 325 324 324 324 325 325 324 322 322 322 322 320 320 320 319 318 316 313 310 308 310 313 314 313 313 313 312 311 310 309 308 307 307 308 308 308 307 308 308 308
319 318 318 318 318 316 316 315 315 315 316 316 315 315 315 315 315 315 315 316 316 316 317 319 320 320 320 320 321 322 322 322 323 322 322 323 323 323 324 324 324 324 322 322 322 322 322 323 323 323 323 323 322 321 322 321 319 319 319 319 318 316 313 311 310 310 311 313 312 312 313 313 312 310 309 308 307 307 307 307 307 307 307 307 307
317 317 316 317 317 316 316 315 315 315 315 315 315 314 314 314 314 315 315 316 317 316 316 316 316 316 316 316 316 318 319 320 321 320 320 321 320 320 321 321 322 321 319 319 320 320 320 321 321 321 321 321 321 321 320 320 319 318 318 317 317 316 313 311 311 310 310 311 311 311 312 312 312 310 309 308 307 307 307 307 307 307 306 306 305
316 315 316 316 316 315 314 314 314 314 314 314 314 314 314 314 315 315 315 315 316 316 315 314 314 315 315 315 315 316 318 319 319 318 318 319 318 318 318 319 319 318 316 317 318 318 319 319 319 319 319 319 319 319 318 318 317 317 316 316 315 315 313 312 311 311 311 311 311 311 311 311 311 310 310 309 308 307 306 306 306 305 304 303 303
Wind_Speed
7 7 7 6 7 8 8 8 8 10 13 14 14 14 14 13 13 13 15 17 18 18 16 14 14 14 13 11 11 10 9 7 6 6 6 6 7 9 10 9 7 6 8 8 9 10 10 10 9 8 6 5 4 2 2 2 3 4 4 5 5 5 5 5 6 5 4 3 4 4 3 3 3 2 2 3 3 4 5 6 9 10 10 9 10
8 9 9 9 8 9 9 9 9 9 11 14 16 16 15 15 14 14 14 17 18 18 16 15 15 15 15 14 12 12 11 10 8 8 7 6 5 6 7 9 8 7 7 8 9 9 9 9 8 6 4 3 3 2 2 3 3 4 5 6 6 5 5 4 4 4 4 4 4 4 3 3 4 3 3 3 4 4 5 6 8 9 9 8 8
10 11 11 11 12 12 12 12 12 11 11 12 15 17 18 17 16 15 15 16 18 19 18 18 18 16 15 14 13 13 13 12 11 11 10 8 7 8 8 8 8 8 7 7 8 8 9 8 7 5 4 3 3 3 4 4 4 4 5 6 5 5 5 5 4 4 4 5 4 4 3 4 5 5 4 4 4 4 4 6 8 8 8 8 7
12 13 13 14 14 15 15 16 15 14 13 13 13 16 18 19 19 18 17 17 18 19 19 20 20 18 16 15 14 14 15 14 14 13 12 10 10 14 12 8 7 7 7 6 7 8 8 8 7 5 4 4 3 4 4 4 4 5 5 5 5 5 4 5 6 5 5 6 5 4 4 5 6 5 4 4 4 4 5 5 6 7 7 7 7
13 14 15 15 16 17 18 18 18 18 17 16 15 14 16 19 21 20 20 20 20 20 20 20 20 20 18 17 15 14 15 16 15 14 13 12 12 16 14 7 6 7 7 5 7 7 7 8 8 4 4 5 3 3 4 4 4 4 4 4 4 5 4 5 7 6 6 6 5 4 4 5 6 6 5 4 4 5 5 6 6 6 6 7 8
13 14 15 16 17 18 19 19 19 20 20 21 18 15 17 19 20 20 20 20 20 20 21 21 21 21 19 18 17 15 15 17 16 13 13 13 14 15 12 7 6 8 7 6 6 6 6 8 7 5 5 5 3 3 4 5 4 4 5 4 4 5 5 6 7 7 6 5 6 5 4 6 6 6 5 4 5 6 6 6 6 6 6 7 7
12 13 14 15 16 17 18 17 19 21 22 23 20 18 20 20 20 20 19 19 18 19 20 21 22 22 21 20 18 17 16 17 16 14 13 13 14 15 12 8 8 8 7 7 6 6 6 7 7 7 7 6 5 4 6 6 4 5 5 5 5 5 6 6 7 7 7 6 7 6 5 6 6 6 5 5 5 6 6 6 7 7 7 7 7
12 13 13 14 15 16 16 16 18 20 21 22 21 19 20 20 21 21 21 19 19 19 21 21 22 22 21 20 19 18 17 18 19 17 15 13 14 14 12 10 9 8 7 7 6 5 6 6 7 8 8 7 5 3 5 6 5 5 5 5 6 5 5 6 7 6 7 6 6 6 5 6 6 6 6 6 6 7 7 7 7 8 8 9 10
11 12 13 14 15 17 17 16 16 17 18 19 20 19 19 20 21 23 23 22 21 21 23 23 23 22 22 20 19 17 17 19 20 19 17 15 14 14 13 11 10 9 8 7 5 5 6 6 6 7 8 7 3 4 6 6 5 6 6 5 6 7 6 6 7 7 6 6 7 7 6 7 8 8 7 8 8 8 9 9 10 10 11 12 13
10 12 13 15 17 18 18 17 16 16 16 17 18 19 19 19 20 22 24 24 23 24 24 23 23 23 23 21 19 17 16 18 20 20 18 16 14 14 14 13 12 10 9 7 6 5 6 6 5 6 7 5 4 6 6 6 5 5 6 6 5 6 7 5 6 7 7 7 7 8 8 8 9 9 9 9 10 10 11 12 12 13 14 15 15
11 12 14 16 17 17 17 16 15 15 14 15 16 17 19 19 19 20 21 23 25 24 24 23 23 23 23 20 18 17 16 17 19 20 19 17 15 16 16 15 13 11 10 8 6 6 5 5 4 5 6 5 4 5 6 7 6 5 5 5 5 6 7 6 7 7 8 8 8 9 9 10 10 10 11 11 11 11 11 12 13 14 15 16 16
11 12 14 15 16 16 15 14 13 14 14 14 15 16 18 19 19 19 20 22 23 24 24 24 24 24 23 19 18 18 17 17 18 19 19 18 17 18 18 17 15 13 11 9 7 6 6 6 5 4 4 3 3 3 4 5 5 5 5 6 6 6 7 8 7 8 8 9 9 9 10 11 11 11 11 12 11 10 10 11 12 13 13 13 13
11 12 13 14 15 14 15 14 13 13 14 14 14 15 16 17 18 18 19 21 22 22 23 23 24 25 23 20 19 20 19 18 18 19 20 20 20 21 20 19 18 14 12 10 8 7 7 7 6 5 4 3 2 2 3 3 5 6 5 7 7 7 8 8 8 8 9 9 9 9 10 11 11 11 11 12 10 9 9 10 11 11 10 10 10
12 14 14 15 15 15 15 14 14 14 15 15 15 14 14 15 17 19 20 21 21 20 21 22 24 25 24 22 22 21 20 21 21 20 21 22 23 24 22 21 19 16 14 12 10 8 8 9 8 6 5 4 2 2 3 3 4 6 7 8 8 8 9 9 9 8 9 9 9 9 10 10 11 11 12 13 10 9 9 10 10 9 9 9 10
12 14 15 16 16 16 16 16 16 16 17 17 17 16 15 14 15 18 20 21 21 20 20 21 22 23 22 21 22 21 21 23 24 22 22 23 25 25 24 23 21 19 17 14 11 10 9 10 10 8 7 6 4 3 3 3 5 7 8 8 9 9 9 9 9 9 9 9 9 9 10 10 11 11 12 12 10 10 10 9 9 10 9 9 10
12 14 15 17 17 17 17 17 17 17 18 19 19 18 18 16 16 17 19 21 23 21 20 21 21 21 20 19 19 19 20 22 24 24 23 24 26 26 25 24 23 22 19 15 13 11 11 11 11 10 9 8 7 5 4 4 5 6 8 9 9 9 9 9 9 8 8 8 8 8 10 11 11 11 11 11 11 11 10 10 10 10 10 9 9
12 14 16 17 18 18 18 18 18 18 18 19 19 19 19 19 19 19 19 21 23 23 22 22 21 21 21 20 17 16 18 19 21 23 24 25 26 27 27 26 24 24 21 17 15 13 12 13 13 12 12 11 9 9 7 6 6 6 7 9 8 7 9 9 8 7 5 6 7 8 10 12 11 10 10 10 10 10 10 10 10 10 9 8 7
14 16 17 18 18 19 19 19 19 19 19 20 20 19 19 20 20 21 21 21 22 23 24 23 23 23 24 25 22 19 19 18 17 19 21 24 26 27 28 28 25 24 23 19 17 15 14 14 14 13 13 13 11 11 10 8 8 7 7 8 8 7 10 11 10 8 5 5 6 6 9 10 10 10 10 10 10 9 10 10 10 10 9 7 7
17 17 19 19 19 20 20 20 20 20 21 22 22 22 21 21 21 22 22 22 22 24 24 22 23 25 26 27 26 23 22 21 20 18 18 22 26 27 28 28 27 26 25 22 19 17 16 16 15 15 15 14 12 12 12 11 9 8 8 8 8 8 12 14 13 11 7 6 6 5 7 8 9 10 10 10 10 10 10 10 10 9 9 8 6
18 17 18 18 19 20 21 22 22 22 22 23 24 24 24 24 24 24 24 23 23 25 25 24 24 26 27 28 27 25 26 26 25 22 20 22 24 27 28 28 29 28 25 23 20 19 17 17 17 17 17 15 14 14 14 13 11 10 10 9 8 9 13 15 15 13 10 9 7 6 7 8 8 9 9 10 10 10 11 11 10 10 10 9 6
19 19 19 19 19 20 22 23 23 23 24 25 26 26 27 27 27 26 26 26 25 24 25 25 26 26 27 28 27 28 28 27 26 24 24 23 23 26 29 29 29 27 26 24 22 20 19 17 17 17 18 17 16 16 15 14 13 12 12 10 9 10 12 15 16 15 13 12 10 9 9 9 8 8 7 8 9 11 11 11 12 11 10 8 6
22 23 22 22 21 22 23 23 23 23 24 25 26 27 28 29 29 29 28 28 28 26 25 26 27 26 27 28 28 29 29 28 28 27 27 26 24 25 28 30 30 28 27 26 23 23 21 19 19 19 20 19 17 17 16 15 14 14 13 12 11 10 12 15 16 16 14 13 12 11 11 10 9 8 6 6 7 9 11 11 12 12 11 8 7
23 24 24 23 22 22 23 23 24 24 24 24 25 26 27 28 29 30 31 31 30 29 27 27 27 27 28 30 30 30 29 28 28 29 30 29 27 26 26 28 30 29 28 26 25 25 23 22 22 21 21 21 19 19 18 16 15 15 14 14 13 11 12 15 17 17 15 15 14 13 13 12 11 10 8 6 5 6 8 9 10 11 10 9 7
22 24 24 23 23 23 23 23 24 25 25 24 25 25 27 28 29 30 32 32 32 30 29 29 28 28 28 30 31 31 30 27 26 27 30 31 29 28 26 25 28 30 28 26 26 26 25 24 23 23 22 21 21 20 19 17 16 15 15 16 15 13 14 15 16 17 17 17 16 14 14 13 13 12 9 7 5 5 6 6 7 8 8 8 7
22 24 24 24 24 23 22 23 23 24 25 26 26 27 28 28 29 30 31 32 32 31 31 31 29 28 29 29 29 30 28 25 24 26 28 30 30 29 27 24 25 28 28 27 27 26 26 25 24 23 23 21 21 21 20 19 18 17 16 17 16 15 15 15 16 17 18 18 17 15 15 15 14 13 10 9 6 4 5 5 6 7 7 8 9
22 23 24 23 23 23 22 23 24 25 26 27 29 29 29 28 28 28 29 29 29 29 30 30 28 27 28 28 28 29 26 22 22 24 26 29 31 30 28 25 23 24 25 26 26 26 26 26 25 24 23 22 21 22 21 20 19 19 18 18 18 17 16 16 17 18 19 19 17 15 15 15 16 15 13 11 8 4 3 4 5 7 8 9 10
22 23 23 23 23 23 23 24 26 27 28 29 30 30 28 27 26 26 27 27 27 28 28 28 27 26 27 27 27 26 21 18 20 22 24 27 29 29 29 27 23 22 24 25 26 27 26 25 26 26 25 23 22 22 22 20 19 19 19 19 19 18 18 17 18 18 18 18 17 15 15 13 14 17 17 14 10 5 3 3 5 7 9 10 10
22 23 24 25 25 24 25 26 26 27 27 27 27 27 25 23 23 23 24 25 25 25 25 26 26 25 25 25 24 22 17 16 18 19 21 25 27 28 29 29 26 22 22 24 25 27 28 26 26 27 26 24 23 23 23 21 19 20 20 20 20 20 20 19 19 19 19 18 17 16 15 12 11 16 19 15 10 6 3 3 5 8 10 11 11
24 25 25 24 24 24 25 25 25 25 25 24 24 23 21 20 19 20 21 21 21 21 22 24 24 24 24 21 20 19 15 14 16 17 19 22 24 27 28 29 26 23 22 23 24 26 28 28 28 28 27 26 24 23 23 22 20 20 20 19 19 20 20 20 20 20 20 18 17 16 16 13 10 14 18 16 12 8 5 4 5 8 11 12 11
22 21 20 20 21 22 23 23 22 22 22 21 20 20 19 18 18 18 18 16 17 19 21 23 22 23 22 19 18 18 16 14 15 16 17 19 20 25 27 26 25 24 23 23 24 25 27 28 28 27 28 27 25 24 24 23 21 20 20 20 19 19 20 20 20 20 20 19 18 17 17 16 13 14 16 16 13 10 7 6 6 8 12 12 11
17 16 17 19 20 21 21 21 21 20 21 20 19 18 18 18 17 17 16 15 16 18 20 20 20 22 21 18 18 19 17 15 15 15 17 19 19 22 26 26 25 25 26 25 24 23 24 27 27 26 27 27 26 25 25 23 21 20 20 20 20 19 19 20 20 20 20 19 18 18 17 15 13 13 15 16 14 10 9 8 8 10 13 13 12
15 16 18 20 21 21 20 20 19 19 20 19 19 18 18 18 17 16 15 14 16 18 18 19 19 20 20 19 19 19 18 17 16 17 17 19 20 21 23 25 25 25 26 25 24 22 21 23 25 26 26 25 26 26 24 23 21 21 20 20 21 20 20 21 20 20 20 19 19 18 17 16 14 14 15 15 13 10 9 9 9 11 13 14 13
16 17 18 20 21 20 19 19 19 18 18 18 18 18 18 17 17 16 15 14 15 16 17 18 19 21 21 21 19 18 18 18 17 18 18 18 19 20 21 23 24 24 25 26 25 23 21 21 23 25 25 25 27 27 25 23 22 21 21 21 22 21 21 21 21 21 21 20 20 19 18 18 16 16 16 15 12 11 11 11 11 12 13 13 13
17 17 18 19 19 18 17 17 18 18 17 17 17 17 17 16 15 15 15 14 15 16 16 17 19 21 22 21 19 17 17 18 17 17 18 17 19 19 19 21 22 23 24 25 25 24 23 21 22 25 26 26 27 28 26 22 21 21 20 21 23 23 21 21 21 21 21 20 20 20 19 19 18 18 17 15 13 12 12 12 12 12 13 13 12
16 16 17 18 19 17 16 15 16 16 16 16 16 16 15 13 12 13 13 13 13 14 15 16 18 20 21 20 18 17 17 17 17 17 17 17 18 18 19 21 22 23 23 24 23 23 23 21 22 26 27 26 26 27 25 20 19 18 17 18 21 24 23 22 21 21 21 20 21 20 19 19 19 18 17 15 14 13 13 12 12 12 13 13 12
14 14 15 16 16 16 15 14 14 14 14 14 15 14 13 11 10 10 10 11 11 11 12 14 16 18 19 19 19 17 17 17 17 17 17 17 17 17 18 19 21 22 22 23 22 22 23 21 22 26 27 27 29 28 23 20 19 18 16 16 20 23 23 22 21 21 20 20 20 20 19 19 18 17 16 15 14 13 13 12 12 13 13 13 12
13 12 13 14 14 14 14 14 14 13 13 13 13 12 12 10 9 9 9 9 9 9 9 10 11 12 14 16 17 16 16 17 16 16 16 16 17 17 17 18 20 21 21 23 22 22 23 22 22 26 27 28 29 27 22 21 21 19 17 16 20 22 22 22 22 21 20 19 19 18 17 18 18 17 15 14 14 14 13 13 13 13 13 13 12
12 12 12 12 13 14 14 14 14 13 12 12 12 11 10 10 9 8 8 8 8 8 7 7 8 10 11 12 12 13 13 13 13 14 14 16 17 17 17 18 20 21 22 22 22 23 24 24 23 26 29 28 27 25 23 21 21 20 19 20 21 22 22 23 23 21 20 19 18 19 18 18 17 16 15 14 14 14 14 14 14 14 13 13 12
11 12 12 11 12 13 14 13 13 13 12 12 12 10 9 9 8 8 7 6 6 6 6 6 7 8 9 10 11 11 11 10 11 12 14 16 18 19 19 19 20 22 22 21 22 24 25 26 26 27 28 28 26 25 23 22 20 20 21 23 24 23 22 23 23 23 21 19 19 20 19 18 17 16 16 16 15 15 15 15 14 14 13 13 12
12 12 12 11 11 12 13 12 12 12 12 11 10 8 8 8 8 8 7 6 5 5 5 6 7 8 9 10 11 12 11 10 10 11 12 15 17 19 19 20 20 21 21 20 22 24 26 28 27 27 28 28 27 27 25 25 25 24 23 24 24 23 23 23 23 23 22 21 21 20 19 19 18 18 17 17 17 16 16 15 15 14 14 13 13
12 12 11 10 10 11 11 10 10 10 11 10 8 8 8 9 9 9 8 7 6 6 6 6 7 8 8 10 11 11 11 11 10 10 11 13 15 16 17 19 20 21 20 20 22 24 27 28 27 27 28 29 29 30 29 28 28 26 25 24 23 23 23 23 22 22 22 22 21 20 20 19 18 18 18 18 17 17 17 16 15 15 14 14 14
12 10 9 8 8 8 9 9 8 9 11 11 11 11 11 11 11 10 9 9 7 6 6 6 6 6 7 9 10 10 10 10 10 11 11 13 13 14 15 16 17 18 19 20 22 23 26 28 28 28 29 30 31 32 31 29 28 26 24 24 23 23 23 23 23 23 23 22 22 21 20 19 18 18 18 18 18 18 17 17 16 16 16 15 15
17 13 10 8 7 8 10 10 11 12 14 15 15 14 13 12 12 11 10 10 8 7 7 7 6 6 6 7 8 8 7 7 7 9 12 13 12 13 15 15 14 15 17 18 20 22 25 27 29 29 30 32 32 32 31 28 26 26 24 23 22 22 24 25 25 25 25 24 23 22 21 20 19 19 19 19 19 19 18 18 17 17 17 17 17
22 20 16 14 12 13 13 13 13 14 15 16 16 15 14 14 13 12 11 10 9 8 8 8 7 6 6 6 6 5 4 4 6 8 10 10 10 11 13 13 13 14 15 17 18 20 22 25 28 29 32 33 32 33 34 29 26 26 25 22 21 21 23 26 27 27 26 25 25 23 22 21 20 20 20 20 20 20 19 19 19 19 18 18 18
22 24 22 20 17 15 14 13 15 16 17 17 17 16 16 15 13 12 11 10 9 8 8 7 7 6 6 6 5 4 2 3 6 7 8 8 9 10 11 12 13 15 16 17 18 19 20 22 25 28 31 33 32 33 34 30 27 27 26 24 22 21 21 24 27 26 25 26 26 24 23 23 22 22 22 21 21 21 21 20 20 20 19 18 18
20 23 24 23 22 20 18 18 20 22 21 21 21 21 21 20 19 17 15 14 12 10 8 7 7 7 8 8 8 6 5 4 5 7 7 7 8 10 11 12 13 14 15 16 17 18 20 21 23 26 28 30 29 29 31 30 27 25 26 24 22 21 21 23 25 25 24 25 26 24 23 24 24 23 22 22 22 22 22 22 21 20 19 18 18
18 20 21 22 23 23 23 23 23 25 24 22 22 22 22 22 22 21 21 21 21 20 17 12 10 8 9 10 9 9 8 6 5 5 5 7 8 9 10 10 11 11 13 14 14 16 18 20 21 22 25 27 26 27 30 31 27 23 22 22 21 20 21 22 25 27 25 25 25 24 24 25 25 24 24 24 24 24 24 23 22 21 20 19 18
17 18 19 21 22 23 23 23 23 24 24 21 20 20 19 18 18 18 19 20 22 24 24 19 14 11 12 13 12 12 10 8 7 6 4 5 6 7 9 9 9 10 10 10 11 12 13 15 16 19 23 25 25 26 28 30 29 25 23 23 23 22 23 24 26 28 28 27 26 26 26 26 26 26 26 26 25 25 24 24 23 22 21 20 18
15 17 19 20 21 21 21 22 22 23 22 21 20 19 19 18 17 17 18 18 20 23 24 22 18 15 16 17 17 15 13 12 12 11 10 7 2 4 7 9 9 8 6 6 6 8 9 10 12 15 19 21 22 24 25 25 24 23 24 25 25 24 25 27 27 28 28 28 27 27 28 28 28 28 27 26 24 24 23 23 23 23 22 21 19
15 18 18 19 19 19 20 20 20 21 21 21 20 19 19 19 20 20 21 21 22 25 27 27 26 25 26 27 27 24 21 19 16 15 14 12 4 7 8 9 10 10 11 11 10 10 11 11 11 11 13 15 17 20 20 19 19 20 22 24 24 24 26 28 28 27 27 28 28 28 27 28 28 28 27 25 23 22 23 24 24 23 22 20 18
15 17 17 18 19 19 20 20 20 20 21 22 21 21 21 21 21 22 23 25 26 28 30 31 30 30 30 30 29 26 24 22 20 19 19 17 13 14 12 10 12 14 14 12 10 11 12 12 12 10 9 10 10 10 11 13 17 19 19 20 21 22 24 26 27 27 27 28 29 29 28 29 29 29 29 27 24 23 24 24 24 22 19 17 15
Wind_Direction
267 271 274 266 250 244 246 249 248 244 241 241 237 232 228 219 210 206 200 197 196 191 191 197 205 215 223 237 250 256 261 264 272 284 296 314 330 337 334 326 326 334 343 349 348 349 351 351 345 333 328 316 293 283 252 227 222 197 190 191 190 204 193 173 178 175 173 165 152 160 168 175 170 158 153 148 143 145 147 143 141 137 127 126 124
264 270 273 273 267 260 258 257 256 252 246 245 243 238 234 229 221 214 210 206 201 200 209 215 215 221 227 233 245 253 258 258 262 267 268 276 300 322 329 320 321 333 343 347 349 351 349 347 344 328 316 301 270 244 222 227 223 209 211 204 202 215 198 167 169 176 170 154 144 149 154 171 169 154 142 137 124 125 136 137 141 144 138 139 141
260 267 271 272 272 272 272 271 270 265 256 248 246 245 240 236 231 225 221 217 212 212 223 230 229 235 239 237 242 248 253 257 263 265 260 261 284 305 314 314 316 328 341 344 346 346 342 343 340 319 300 287 256 235 221 210 201 209 219 207 199 207 194 164 151 157 150 135 141 157 153 153 154 148 140 135 123 117 125 132 142 144 140 145 153
258 263 268 271 273 274 275 276 277 275 268 257 248 249 248 243 238 234 231 228 227 228 231 235 237 243 247 248 250 248 249 254 261 262 258 261 285 295 295 298 306 317 329 336 339 338 337 338 330 310 303 300 270 249 237 215 209 219 224 211 200 196 187 171 158 145 138 135 143 156 155 149 144 142 139 133 122 111 113 123 138 144 139 137 134
259 264 267 270 271 271 272 272 274 275 273 266 253 250 253 251 247 242 240 238 238 241 242 241 241 245 251 257 260 258 253 252 258 262 258 262 278 283 281 279 283 299 315 324 329 330 330 328 320 306 299 298 285 266 243 220 224 232 226 214 199 189 180 169 161 149 146 156 163 159 164 158 145 142 140 131 116 102 105 111 121 137 140 131 121
269 269 268 269 270 268 269 268 270 269 269 267 259 254 253 250 248 246 243 243 243 247 251 250 249 250 255 259 263 265 259 253 255 257 254 260 271 273 274 272 266 283 301 310 317 318 319 320 310 297 293 286 277 257 229 227 240 234 217 203 186 186 178 164 162 160 157 171 179 168 163 159 146 140 137 125 112 102 106 109 110 120 127 127 122
277 275 271 269 267 266 267 267 268 267 265 265 261 256 252 246 242 242 243 244 247 251 254 255 254 255 258 260 262 265 261 255 253 251 250 259 269 271 271 265 255 268 288 298 307 307 310 311 300 299 297 284 279 257 229 236 243 221 210 203 194 193 186 172 165 165 168 179 185 172 152 148 142 134 131 118 109 106 109 110 110 112 110 113 115
281 278 275 272 270 271 272 272 270 268 267 267 266 261 258 251 241 239 241 242 245 252 258 259 256 255 258 261 261 262 262 256 250 251 253 257 265 267 263 254 247 255 275 291 298 298 302 302 297 301 299 289 284 249 218 224 217 206 207 206 204 203 199 179 162 166 179 182 179 167 148 142 134 125 123 115 112 112 110 109 108 109 107 105 104
281 276 276 276 278 282 283 281 276 272 269 269 271 269 267 261 249 243 245 245 244 246 255 260 258 253 254 259 262 262 263 257 249 248 250 253 259 258 252 246 243 249 265 279 282 285 293 296 296 298 297 290 256 209 208 211 205 203 200 201 202 199 202 187 166 167 171 161 157 154 144 134 127 121 118 114 114 113 110 108 106 105 105 101 99
278 274 276 278 282 285 286 287 283 277 270 267 269 269 268 264 258 252 250 251 248 245 249 253 254 252 251 254 260 264 264 258 250 245 247 251 251 246 244 241 237 243 256 264 265 272 281 286 294 296 293 283 234 210 206 205 206 202 191 190 193 188 191 185 168 163 157 148 146 145 136 126 123 120 118 116 116 114 110 108 105 103 101 100 98
277 277 279 281 283 283 284 284 280 275 271 269 269 271 270 266 262 258 256 255 253 251 251 249 249 251 253 253 255 261 261 254 249 246 249 252 244 236 238 238 234 235 243 251 254 262 267 267 277 292 292 280 248 218 211 212 206 201 196 186 181 177 176 173 166 161 155 149 144 139 131 126 123 119 115 113 110 108 108 105 104 104 102 100 97
280 281 282 282 282 282 282 280 277 275 274 276 277 277 275 271 268 265 261 257 254 254 252 250 248 248 253 255 253 255 255 250 248 247 248 247 238 234 236 238 237 230 229 241 248 250 252 248 253 273 286 279 256 218 213 223 206 195 198 188 181 174 169 168 165 161 155 147 143 140 133 128 124 120 116 108 102 101 104 105 107 106 101 98 95
287 287 286 284 282 282 282 280 280 281 282 284 284 282 276 272 271 268 263 259 257 256 252 249 247 245 247 250 250 250 248 244 243 244 243 242 237 234 235 239 240 229 221 232 241 243 242 237 240 254 266 261 240 203 197 220 214 199 187 179 176 170 165 163 161 161 154 146 145 141 136 135 132 130 126 118 112 112 111 112 115 112 105 102 101
293 291 289 288 286 285 283 282 283 286 290 290 288 285 280 273 269 267 267 265 259 256 253 248 246 246 245 242 242 240 239 239 239 240 239 238 237 233 232 237 238 227 219 226 234 238 236 234 237 240 244 235 208 201 202 203 210 200 180 171 171 169 165 162 162 161 152 148 148 143 140 142 143 139 131 127 128 129 125 124 122 119 116 115 114
293 290 291 292 294 294 293 292 292 293 296 295 292 288 284 278 271 269 270 269 263 256 254 250 246 245 239 236 237 235 235 238 238 237 236 234 233 231 232 235 235 226 216 219 229 233 232 232 236 235 235 228 205 198 203 192 203 198 180 174 176 173 167 164 164 160 154 154 153 149 147 145 140 133 129 133 139 139 137 135 129 126 128 128 125
285 286 290 291 293 296 296 296 296 297 297 295 295 293 290 285 278 274 271 271 272 268 262 257 250 242 234 233 235 230 230 235 237 237 235 233 232 233 235 233 233 228 217 216 224 229 231 231 234 232 228 226 214 205 202 193 201 198 184 179 179 175 170 165 164 160 160 163 158 154 151 144 136 131 136 144 144 143 142 140 138 138 140 139 135
279 282 286 287 289 291 292 292 293 294 292 291 291 292 292 290 285 280 274 271 274 274 271 267 260 253 247 243 236 227 229 233 238 237 235 235 233 234 235 232 230 228 220 219 223 223 226 228 230 230 226 226 221 212 208 202 202 203 192 181 180 182 169 155 158 166 167 162 156 153 153 148 142 144 152 153 149 148 148 147 149 150 152 153 151
279 282 284 284 286 287 285 285 287 287 287 287 286 287 287 287 287 283 278 274 274 274 273 271 269 265 256 249 244 242 242 237 231 233 235 236 235 234 233 231 228 225 221 221 221 222 224 226 228 228 226 227 223 216 212 208 204 207 202 187 189 187 160 147 161 179 184 168 156 156 159 155 153 158 162 159 155 155 152 154 158 158 162 170 171
278 280 282 283 283 282 282 282 282 282 282 283 283 284 283 283 283 281 278 276 274 274 273 271 270 269 263 256 251 249 250 247 236 232 234 233 232 233 232 230 226 222 221 220 219 222 223 224 226 226 226 225 221 217 214 211 206 207 208 197 198 186 159 156 169 178 183 182 173 167 164 159 160 166 167 163 161 157 155 159 164 170 178 182 185
281 282 282 282 282 281 281 282 281 281 281 281 280 281 282 281 281 278 277 274 271 272 274 272 268 266 265 262 257 251 250 252 245 237 237 235 231 229 228 229 227 223 221 219 219 221 222 223 225 224 224 222 219 217 214 212 210 208 210 203 197 187 169 167 173 177 182 185 180 175 171 167 167 169 167 167 169 165 163 166 171 184 190 189 198
282 285 284 285 284 281 281 282 282 281 280 280 279 278 278 279 280 278 276 274 272 272 272 272 268 265 265 262 259 254 250 250 245 238 238 239 235 231 225 224 227 226 221 219 220 220 221 222 223 224 224 220 218 217 213 213 212 209 211 205 197 192 182 177 178 181 183 184 182 181 180 177 179 180 174 174 180 179 179 181 186 196 203 201 210
285 287 288 289 287 285 285 285 285 284 282 281 280 278 276 276 277 276 275 274 273 271 268 267 266 264 265 264 260 254 250 247 242 237 236 236 237 238 231 223 224 225 220 219 221 218 218 220 219 220 222 220 218 216 213 211 212 211 211 207 200 195 191 186 183 185 186 186 189 189 185 185 188 191 186 181 188 194 196 199 203 210 216 217 216
288 289 291 293 292 289 288 289 289 288 287 286 284 282 279 276 275 273 272 271 271 270 268 265 264 261 259 261 260 256 253 252 250 245 240 236 233 236 235 228 226 227 223 222 222 220 218 218 217 215 218 220 218 214 212 211 211 212 211 208 204 197 194 192 188 188 187 188 193 195 192 190 191 194 195 194 200 207 211 214 214 214 211 210 209
288 289 289 290 290 289 288 287 287 287 288 287 286 284 281 278 274 272 271 270 268 267 265 264 263 260 257 257 259 258 256 255 257 253 243 236 233 232 232 228 226 228 229 226 222 221 220 218 216 215 215 218 218 214 213 212 212 213 211 208 207 202 197 196 194 192 191 191 194 198 199 196 196 199 199 203 216 225 231 233 225 212 199 195 191
288 288 288 287 288 288 287 286 286 286 286 286 286 284 282 278 274 271 270 270 268 265 264 264 261 258 258 259 259 259 257 254 255 253 243 234 233 232 229 227 226 226 229 228 223 223 223 220 217 216 215 215 216 215 214 214 212 213 212 206 207 208 200 197 197 198 197 195 196 201 205 202 201 201 197 204 225 244 246 241 227 213 197 188 183
288 290 290 289 289 289 289 289 290 289 288 288 287 284 281 278 274 271 268 268 268 266 266 267 265 260 258 259 260 259 257 253 251 250 243 234 231 230 227 225 224 224 226 226 223 223 223 221 218 218 215 213 215 215 214 214 211 212 213 208 206 209 205 199 198 200 202 202 203 207 212 212 206 199 195 205 222 255 265 223 209 208 199 188 183
288 290 292 293 293 293 292 292 292 292 291 291 289 286 284 281 276 271 267 267 267 266 265 268 268 263 257 255 257 258 254 252 252 249 245 241 234 230 228 223 215 216 223 225 223 221 221 220 218 218 216 214 215 215 213 213 211 210 212 210 207 208 207 202 199 201 203 206 210 213 219 224 212 197 196 206 217 243 271 218 204 206 200 191 188
287 290 292 294 295 294 293 293 294 294 295 295 293 291 289 285 279 273 269 267 266 264 262 264 265 261 254 251 254 256 252 252 255 251 248 247 239 230 229 225 217 210 214 221 224 221 221 221 219 217 216 215 216 215 212 210 209 208 210 210 208 208 208 204 202 203 205 209 214 218 222 227 214 199 200 207 212 227 262 233 214 211 201 195 195
290 293 294 294 294 293 293 295 297 298 300 302 300 295 291 286 279 275 273 270 267 264 261 263 262 255 249 247 250 255 256 255 256 252 250 250 241 229 225 228 227 220 214 216 221 221 220 221 219 216 214 214 216 216 211 208 207 207 209 211 210 210 210 207 205 206 208 213 218 222 225 224 216 207 208 213 216 224 254 255 227 217 205 198 199
296 297 298 296 293 292 295 300 302 301 303 307 306 300 294 288 280 275 274 270 267 265 263 264 261 255 252 249 243 245 251 259 259 254 249 249 241 227 224 227 230 234 233 225 223 223 220 220 220 216 212 211 212 211 208 207 206 208 210 212 212 211 211 211 210 209 211 216 220 226 229 225 219 214 215 223 227 229 250 260 241 221 207 201 199
299 299 298 296 294 295 298 304 305 303 303 306 307 305 300 294 287 278 272 269 267 266 265 264 259 257 259 257 247 238 236 249 259 254 245 244 241 230 227 230 230 235 240 235 231 230 226 222 220 215 212 211 210 209 207 205 205 208 211 213 212 211 211 211 212 212 214 217 220 225 229 227 223 218 219 230 233 231 247 259 245 223 208 203 200
299 300 300 298 299 301 303 306 309 307 305 304 306 307 303 298 293 285 275 271 270 267 265 263 259 259 259 258 254 242 232 237 249 250 244 241 243 238 234 234 231 231 235 234 235 237 235 231 225 217 212 210 210 211 206 201 203 209 212 212 212 211 209 209 210 212 214 217 219 222 225 224 225 224 222 227 230 234 249 254 240 222 208 204 203
305 305 304 303 305 307 307 307 310 311 308 306 307 309 306 300 295 288 278 271 271 271 268 263 262 263 261 257 253 245 236 235 241 245 244 240 240 239 236 232 228 230 232 233 237 239 239 235 226 219 213 209 210 209 203 200 204 208 210 210 210 210 209 208 209 211 212 213 215 219 222 221 222 224 222 222 227 239 248 244 231 217 205 203 206
308 307 307 309 311 313 312 309 309 312 312 309 310 311 308 302 296 289 279 270 270 274 274 269 265 263 261 256 251 245 242 239 238 240 241 237 235 235 233 228 227 231 234 235 239 241 241 235 222 215 212 211 212 206 200 201 205 206 208 209 207 206 208 209 209 211 210 210 212 217 221 219 217 218 216 218 229 240 239 230 220 209 202 204 207
309 307 309 315 318 318 315 312 312 313 314 312 314 315 309 302 297 290 280 272 272 278 281 277 269 265 265 261 252 245 245 245 242 241 239 236 233 231 230 228 229 233 236 236 238 239 240 236 222 214 212 213 211 204 200 201 203 206 213 215 211 206 206 207 208 209 210 209 210 215 218 215 213 214 212 218 231 233 226 219 210 203 201 204 207
314 311 314 320 323 320 314 313 315 317 318 318 318 318 315 309 302 292 285 281 281 286 287 278 269 267 269 268 260 251 250 249 246 242 238 235 233 230 230 231 232 237 239 237 236 237 238 234 224 217 215 213 207 201 200 201 200 207 219 221 214 206 203 204 204 206 207 208 210 213 213 207 205 210 214 222 228 221 215 211 204 201 202 204 207
321 317 317 322 327 324 317 316 319 321 322 323 322 321 321 321 314 305 302 303 304 304 298 284 273 271 270 268 264 257 252 249 246 243 239 235 234 233 234 236 237 239 240 238 235 236 236 232 224 218 216 214 208 201 201 203 202 207 217 218 209 202 200 201 201 200 200 203 205 205 202 198 200 210 218 221 218 211 210 208 203 203 204 204 207
326 319 317 320 325 328 327 324 322 322 323 324 327 326 324 328 327 318 316 322 327 330 327 309 284 271 265 264 264 258 251 247 244 244 242 238 237 238 238 240 239 238 238 238 234 234 235 232 225 218 215 213 208 202 203 207 207 207 208 205 199 197 199 198 195 193 192 196 197 194 194 196 200 208 212 211 208 207 207 206 204 206 207 207 210
333 328 326 327 328 330 333 332 329 327 326 328 332 335 338 344 343 331 322 325 336 345 342 326 298 275 264 262 266 264 256 252 247 245 244 242 242 244 244 244 240 235 236 237 234 232 231 226 222 219 216 212 207 204 204 206 210 211 206 198 193 192 195 194 192 189 188 191 193 191 192 196 200 203 202 203 205 206 207 208 207 208 209 210 214
347 342 343 343 337 334 335 336 334 334 338 341 342 347 355 358 354 343 330 323 328 333 328 320 308 292 270 257 260 263 261 258 252 248 248 247 247 249 248 245 239 235 235 236 233 230 225 221 219 219 217 211 207 206 206 205 207 208 205 201 197 194 193 192 191 191 190 191 192 191 192 195 197 198 199 202 205 206 208 210 209 210 212 214 218
356 351 349 347 341 338 337 337 339 345 353 358 0 3 7 5 1 355 347 337 328 318 314 315 311 303 285 266 262 264 265 264 258 254 251 247 248 251 250 246 242 239 237 234 230 227 225 222 220 218 214 210 207 205 206 206 206 201 198 200 201 199 193 189 190 193 194 193 192 190 191 193 196 200 203 206 208 209 211 212 212 214 216 218 221
17 9 3 356 348 347 349 353 4 13 17 21 23 20 16 14 9 3 359 357 350 335 328 322 309 302 296 284 277 274 272 270 268 265 255 247 247 251 252 250 245 242 241 238 233 229 227 226 223 219 215 212 209 208 207 207 205 200 197 198 199 198 193 189 189 192 194 194 193 191 192 194 198 204 208 210 211 212 214 214 214 216 218 221 223
36 34 31 25 21 19 21 29 38 39 37 36 33 28 26 25 19 11 8 9 9 359 348 344 332 318 309 301 296 288 276 266 265 265 257 249 246 246 247 248 245 242 242 244 243 237 232 228 225 224 223 219 215 213 210 207 204 201 200 200 200 199 197 194 193 193 193 194 194 193 194 197 202 209 212 212 213 214 215 215 216 218 220 224 227
43 45 46 44 44 44 47 54 58 55 50 45 41 35 32 32 26 19 16 16 16 7 355 352 350 338 325 317 310 300 278 253 249 254 252 247 242 238 236 237 240 243 242 244 248 246 240 234 230 231 232 228 221 215 208 201 199 200 201 203 205 204 203 202 200 198 195 193 193 195 199 202 206 211 213 214 214 214 215 216 218 221 224 227 232
52 55 56 55 56 59 65 73 75 71 64 57 54 50 45 43 39 33 28 23 19 10 358 353 351 344 336 332 330 325 306 265 249 248 245 239 236 231 228 228 230 235 237 238 242 247 247 243 240 240 237 231 226 218 209 200 197 201 203 205 208 209 210 210 206 202 200 198 196 198 204 208 211 213 215 217 217 216 217 219 221 224 227 230 234
64 65 65 64 66 70 73 74 75 76 73 67 63 62 59 57 56 53 50 45 40 32 17 1 352 347 343 340 338 340 333 305 268 255 246 237 231 225 225 227 224 226 232 236 238 244 247 245 244 245 241 234 230 222 212 205 202 204 205 206 208 211 214 215 210 205 204 205 204 204 208 212 215 217 219 221 220 219 220 222 224 226 228 230 234
73 73 74 74 75 77 76 74 73 74 73 68 64 61 58 56 55 55 54 52 50 47 40 27 11 8 11 5 0 359 351 333 305 279 259 248 242 233 228 226 224 226 235 240 240 241 242 241 241 246 245 239 234 225 216 211 208 207 212 214 214 214 214 213 209 206 207 208 210 213 216 217 218 220 222 223 223 222 222 223 225 226 227 227 227
82 81 81 82 83 83 79 75 72 72 70 66 60 53 49 47 47 48 49 51 53 54 50 44 37 38 40 31 21 15 8 4 11 14 339 284 258 237 224 216 219 230 233 234 232 228 231 237 240 243 244 240 232 224 221 220 215 212 218 224 221 217 215 213 211 211 213 215 215 218 222 224 223 222 222 222 222 223 223 224 224 223 222 221 217
90 87 85 87 87 85 79 73 70 70 69 63 55 46 42 41 40 41 43 48 54 58 57 55 53 53 51 45 36 31 29 28 30 33 21 356 316 200 196 191 196 205 186 166 185 196 203 217 225 230 234 233 227 222 226 233 228 218 219 225 223 219 218 217 216 217 219 222 224 225 227 228 227 224 221 219 219 219 218 217 217 216 214 211 207
92 91 90 91 89 82 76 72 70 70 69 64 56 49 44 41 41 46 50 52 59 64 65 65 64 63 61 56 49 45 46 44 40 43 34 19 46 132 144 157 158 143 120 118 134 149 159 176 190 204 214 216 219 224 230 237 232 222 223 226 226 225 224 223 223 224 224 228 232 232 230 228 228 225 220 213 207 208 212 209 207 206 203 199 194
95 97 97 97 91 81 75 72 71 70 67 63 57 53 51 50 52 57 59 60 66 72 72 69 68 67 66 62 56 52 54 55 55 57 52 44 63 91 99 106 107 98 94 102 117 133 146 153 159 171 181 181 196 216 219 214 215 221 228 231 231 234 234 232 232 231 231 232 234 234 231 229 229 227 223 215 202 197 201 202 198 192 186 182 178